TANAGER 4001

导读

TANAGER 4001(又名Tanager-1)是美国碳绘图者联盟主导的首颗温室气体监测卫星,于北京时间2024年8月16日由SpaceX猎鹰9号火箭从加利福尼亚州范登堡空军基地发射升空。卫星搭载NASA喷气推进实验室研发的先进成像光谱仪,可在全球范围精准监测甲烷、二氧化碳点源排放,定位“超级排放源”,相关数据将公开,助力气候变化应对决策,是公私合作应对气候变化的标杆项目。

基本信息
目录编号:
60507
目录名称:
TANAGER-1 4001
国际标识:
2024-149AR
轨道中心:
EARTH
卫星名称:
TANAGER 4001
卫星全名:
TANAGER 4001
卫星状态:
在轨 (已飞行756 天)
发射日期:
2024-08-16 UTC
国别 :
美国 (US)
星等 :
--
轨道信息
数据来源 国际轨道数据
星历时间: 2026-09-10T20:11:20+0800
14小时前
查看轨道信息
半长轴: 6812.753km
偏心率: 0.0001165
轨道倾角: 97.229°
近地点辐角 33.166°
升交点赤经 347.285°
平近点角 326.967°
近地点: 433.822km
远地点: 435.41km
周期: 93.270分钟
每日圈数: 15.43899
详细信息
使用方式:
暂无
2D轨道图
3D轨道图
轨道高度分析图
轨道倾角分析图
轨道综合分析图
查看轨道综合分析图
与全量物体交会距离演化趋势
与全量物体交会风险概率演化趋势